Regional Weather Roundup
Issued by NWS

Home | Current Version | Previous Version | Text Only | Print | Product List | Glossary Off
Versions: 1 2 3 4 5 6 7 8 9 10 11 12 13 14 15 16 17 18 19 20 21 22 23 24 25 26 27 28 29 30 31 32 33 34 35 36 37 38 39 40 41 42 43 44 45 46 47 48 49 50

000
ASUS43 KOAX 192010
RWRNE

WEATHER ROUNDUP FOR NEBRASKA
NATIONAL WEATHER SERVICE OMAHA NE
300 PM CDT TUE AUG 19 2014

NOTES: SATELLITE DATA IS BEING USED TO AUGMENT CLOUD COVER ABOVE
       12000 FEET.
       "FAIR" INDICATES FEW OR NO CLOUDS BELOW 12,000 FEET WITH NO
       SIGNIFICANT WEATHER AND/OR OBSTRUCTIONS TO VISIBILITY.

  * THESE STATIONS DO NOT REPORT WEATHER SUCH AS RAIN...SNOW OR FOG.

NEZ001>004-019>022-054>056-192100-
NEBRASKA PANHANDLE

CITY           SKY/WX    TMP DP  RH WIND       PRES   REMARKS
SCOTTSBLUFF    CLOUDY    92  58  31 E8        29.83F HX  91
ALLIANCE       PTSUNNY   89  53  29 S13G22    29.84F
CHADRON        PTSUNNY   93  51  23 W3        29.76F HX  90
KIMBALL        MOSUNNY   88  47  24 SW10      29.89F
SIDNEY         SUNNY     92  52  25 S10G23    29.89F
$$

NEZ057>060-069>072-079>082-192100-
SOUTHWEST NEBRASKA

CITY           SKY/WX    TMP DP  RH WIND       PRES   REMARKS
NORTH PLATTE   MOSUNNY   89  64  43 E17       29.81F HX  90
IMPERIAL       MOSUNNY   89  55  31 E10       29.83F
LEXINGTON      MOSUNNY   85  68  57 SE9       29.83F
MCCOOK         MOSUNNY   91  59  33 SE9       29.82F HX  90
OGALLALA       MOSUNNY   89  57  33 SE12      29.84S
$$

NEZ005>010-023>029-035>040-094-192100-
NORTH CENTRAL NEBRASKA

CITY           SKY/WX    TMP DP  RH WIND       PRES   REMARKS
VALENTINE      MOSUNNY   90  59  35 SE12G20   29.81F
AINSWORTH      SUNNY     85  60  42 SE12      29.82F
BROKEN BOW     SUNNY     86  66  51 SE10      29.82F
O`NEILL        SUNNY     85  62  45 SE5       29.83F
ORD            SUNNY     85  65  51 E9        29.81F
THEDFORD       MOSUNNY   89  60  37 SE9G17    29.84S
$$

NEZ041-046>049-061>064-073>077-083>087-192100-
SOUTH CENTRAL NEBRASKA

CITY           SKY/WX    TMP DP  RH WIND       PRES   REMARKS
GRAND ISLAND   SUNNY     87  66  49 VRB6      29.84F
AURORA         SUNNY     87  69  53 SE7       29.83F HX  91
HASTINGS       SUNNY     86  66  51 SE7       29.83F
HEBRON         SUNNY     89  62  39 SW3       29.82F
HOLDREGE       SUNNY     85  66  52 E10       29.83F
KEARNEY *      SUNNY     86  66  51 E8        29.84F
YORK           SUNNY     84 N/A N/A SE7       29.83F
$$

NEZ011>018-030>034-042>045-192100-
NORTHEAST NEBRASKA

CITY           SKY/WX    TMP DP  RH WIND       PRES   REMARKS
NORFOLK        SUNNY     85  62  46 S6        29.82F
ALBION         SUNNY     83  62  48 S8        29.84S
BLAIR          SUNNY     85  61  43 CALM      29.82F
COLUMBUS *     SUNNY     84  64  51 S3        29.83F
FREMONT        SUNNY     87  59  38 CALM      29.82F
TEKAMAH        SUNNY     88  63  43 NE5       29.81F
WAYNE          SUNNY     83  63  50 CALM      29.83F
$$

NEZ050>053-065>068-078-088>093-192100-
SOUTHEAST NEBRASKA

CITY           SKY/WX    TMP DP  RH WIND       PRES   REMARKS
LINCOLN        SUNNY     91  62  37 NE8       29.81F HX  91
OMAHA EPPLEY   MOSUNNY   89  61  38 N8        29.81F
BEATRICE       SUNNY     90  66  45 SW8       29.82S HX  93
FALLS CITY     SUNNY     91  70  49 SE8       29.81F HX  96
NEBRASKA CITY  SUNNY     86  64  48 E5        29.82S
PLATTSMOUTH    SUNNY     88  60  39 CALM      29.82F
$$

NEZ044-045-051>053-067-192100-
OMAHA AREA

CITY           SKY/WX    TMP DP  RH WIND       PRES   REMARKS
OMAHA EPPLEY   MOSUNNY   89  61  38 N8        29.81F
BLAIR          SUNNY     85  61  43 CALM      29.82F
FREMONT        SUNNY     87  59  38 CALM      29.82F
MILLARD        SUNNY     88  61  39 N6        29.81S
OFFUTT AFB     SUNNY     88  64  45 E5        29.80F
PLATTSMOUTH    SUNNY     88  60  39 CALM      29.82F
WAHOO          FAIR      86  59  40 CALM      29.82F
$$


USA.gov is the U.S. government's official web portal to all federal, state and local government web resources and services.